Ashland, WI

8:54 PM CST on February 11, 2016 (GMT -0600)
Kennedy Memorial

Weather History for KASX - April, 2014

Change the Weather History Date:

Wednesday, April 9, 2014

  Actual Average (KHYR) Record (KHYR)
Temperature  
Mean Temperature 40 °F -  
Max Temperature 54 °F 49 °F 72 °F (2005)
Min Temperature 28 °F 32 °F 7 °F (1997)
Degree Days  
Heating Degree Days 24    
Moisture  
Dew Point 26 °F    
Average Humidity 53    
Maximum Humidity 69    
Minimum Humidity 36    
Precipitation  
Precipitation 0.00 in - - ()
Sea Level Pressure  
Sea Level Pressure 29.71 in    
Wind  
Wind Speed 9 mph (SSW)    
Max Wind Speed 22 mph    
Max Gust Speed 33 mph    
Visibility 10 miles    
Events      
Averages and records for this station are not official NWS values.
T = Trace of Precipitation, MM = Missing Value Source: NWS Daily Summary

Daily Weather History Graph

Daily Weather History Graph

Search for Another Location

Airport or City:

Trip Planner

Search our weather history database for the weather conditions in past years. The results will help you decide how hot, cold, wet, or windy it might be!

Date:

Astronomy

Apr. 09, 2014 Rise Set
Actual Time 6:27 AM CDT 7:43 PM CDT
Civil Twilight 5:56 AM CDT 8:14 PM CDT
Nautical Twilight 5:19 AM CDT 8:52 PM CDT
Astronomical Twilight 4:39 AM CDT 9:32 PM CDT
Moon 2:14 PM CDT (4/9) 3:35 AM CDT (4/9)
Length of Visible Light 14h 18m
Length of Day
13h 15m
Waxing Gibbous, 72% of the Moon is Illuminated
Apr 9
Waxing Gibbous
Apr 15
Full
Apr 22
Last Quarter
Apr 29
New
May 6
First Quarter

Hourly Weather History & Observations

Time (CDT) Temp. Windchill Dew Point Humidity Pressure Visibility Wind Dir Wind Speed Gust Speed Precip Events Conditions
12:53 AM 32.0 °F 26.4 °F 19.9 °F 61% 29.96 in 10.0 mi WSW 5.8 mph - N/A   Clear
1:53 AM 30.9 °F 24.3 °F 19.9 °F 64% 29.95 in 10.0 mi WSW 6.9 mph - N/A   Clear
2:53 AM 30.0 °F 23.2 °F 19.9 °F 66% 29.94 in 10.0 mi WSW 6.9 mph - N/A   Clear
3:53 AM 30.0 °F 24.1 °F 19.9 °F 66% 29.93 in 10.0 mi SW 5.8 mph - N/A   Clear
4:53 AM 28.9 °F 22.8 °F 19.9 °F 69% 29.92 in 10.0 mi SSW 5.8 mph - N/A   Clear
5:53 AM 30.9 °F 25.2 °F 19.9 °F 64% 29.91 in 10.0 mi SSW 5.8 mph - N/A   Overcast
6:53 AM 30.0 °F 26.5 °F 21.0 °F 69% 29.90 in 10.0 mi South 3.5 mph - N/A   Mostly Cloudy
7:53 AM 33.1 °F 26.9 °F 21.9 °F 64% 29.89 in 10.0 mi SSW 6.9 mph - N/A   Overcast
8:53 AM 37.9 °F 32.7 °F 24.1 °F 57% 29.87 in 10.0 mi SSW 6.9 mph - N/A   Overcast
9:53 AM 42.1 °F 36.6 °F 24.1 °F 49% 29.82 in 10.0 mi SSW 9.2 mph - N/A   Overcast
10:53 AM 44.1 °F 37.7 °F 25.0 °F 47% 29.77 in 10.0 mi South 12.7 mph 23.0 mph N/A   Overcast
11:53 AM 48.0 °F - 25.0 °F 41% 29.73 in 10.0 mi SSW 9.2 mph 21.9 mph N/A   Scattered Clouds
12:53 PM 50.0 °F - 25.0 °F 38% 29.67 in 10.0 mi SSW 21.9 mph 28.8 mph N/A   Clear
1:53 PM 51.1 °F - 25.0 °F 36% 29.63 in 10.0 mi SW 21.9 mph 33.4 mph N/A   Overcast
2:53 PM 51.1 °F - 27.0 °F 39% 29.62 in 10.0 mi SSW 15.0 mph 26.5 mph N/A   Clear
3:53 PM 53.1 °F - 28.0 °F 38% 29.60 in 10.0 mi SW 16.1 mph 29.9 mph N/A   Clear
4:53 PM 53.1 °F - 28.9 °F 40% 29.58 in 10.0 mi SW 19.6 mph 31.1 mph N/A   Clear
5:53 PM 53.1 °F - 30.9 °F 43% 29.57 in 10.0 mi SW 17.3 mph 24.2 mph N/A   Clear
6:53 PM 52.0 °F - 33.1 °F 49% 29.55 in 10.0 mi SSW 16.1 mph - N/A   Clear
7:53 PM 53.1 °F - 35.1 °F 50% 29.51 in 10.0 mi SSW 11.5 mph - N/A   Clear
8:53 PM 50.0 °F - 34.0 °F 54% 29.47 in 10.0 mi SSW 10.4 mph - N/A   Clear
9:53 PM 50.0 °F - 35.1 °F 57% 29.45 in 10.0 mi SSW 11.5 mph - N/A   Clear
10:53 PM 53.1 °F - 35.1 °F 50% 29.40 in 10.0 mi SSW 10.4 mph 18.4 mph N/A   Scattered Clouds
11:53 PM 50.0 °F - 35.1 °F 57% 29.43 in 10.0 mi WSW 9.2 mph 19.6 mph N/A   Partly Cloudy